owner,sensor,date,latitude,longitude,vertical_datum,sea_water_temperature,qcFlag
Amerada Hess,ioos:station:wmo:42879:2,2020-04-11T16:32:00Z,28.2713,-88.8546,30.0,24.1,11111222
Amerada Hess,ioos:station:wmo:42879:2,2020-04-11T16:42:00Z,28.2713,-88.8546,30.0,24.3,11111222
Amerada Hess,ioos:station:wmo:42879:2,2020-04-11T16:52:00Z,28.2713,-88.8546,30.0,24.4,11111222
Amerada Hess,ioos:station:wmo:42879:2,2020-04-11T17:02:00Z,28.2713,-88.8546,30.0,24.5,11111222
Amerada Hess,ioos:station:wmo:42879:2,2020-04-11T17:12:00Z,28.2713,-88.8546,30.0,24.5,11111222
Amerada Hess,ioos:station:wmo:42879:2,2020-04-11T17:22:00Z,28.2713,-88.8546,30.0,24.6,11111222
Amerada Hess,ioos:station:wmo:42879:2,2020-04-11T17:32:00Z,28.2713,-88.8547,30.0,24.6,11111222
Amerada Hess,ioos:station:wmo:42879:2,2020-04-11T17:42:00Z,28.2713,-88.8547,30.0,24.6,11111222
Amerada Hess,ioos:station:wmo:42879:2,2020-04-11T17:52:00Z,28.2713,-88.8547,30.0,24.6,11111222
Amerada Hess,ioos:station:wmo:42879:2,2020-04-11T18:02:00Z,28.2713,-88.8546,30.0,24.6,11111222
Amerada Hess,ioos:station:wmo:42879:2,2020-04-11T18:12:00Z,28.2713,-88.8546,30.0,24.6,11111222
Amerada Hess,ioos:station:wmo:42879:2,2020-04-11T18:22:00Z,28.2713,-88.8546,30.0,24.6,11111222
Amerada Hess,ioos:station:wmo:42879:2,2020-04-11T18:32:00Z,28.2713,-88.8546,30.0,24.6,11111222
Amerada Hess,ioos:station:wmo:42879:2,2020-04-11T18:42:00Z,28.2713,-88.8547,30.0,24.6,11111222
Amerada Hess,ioos:station:wmo:42879:2,2020-04-11T18:52:00Z,28.2713,-88.8547,30.0,24.6,11111222
Amerada Hess,ioos:station:wmo:42879:2,2020-04-11T19:02:00Z,28.2713,-88.8547,30.0,24.6,11111222
Amerada Hess,ioos:station:wmo:42879:2,2020-04-11T19:12:00Z,28.2713,-88.8547,30.0,24.6,11111222
Amerada Hess,ioos:station:wmo:42879:2,2020-04-11T19:22:00Z,28.2713,-88.8547,30.0,24.7,11111222
Amerada Hess,ioos:station:wmo:42879:2,2020-04-11T19:32:00Z,28.2713,-88.8547,30.0,24.6,11111222
Amerada Hess,ioos:station:wmo:42879:2,2020-04-11T19:42:00Z,28.2713,-88.8546,30.0,24.6,11111222
Amerada Hess,ioos:station:wmo:42879:2,2020-04-11T19:52:00Z,28.2713,-88.8546,30.0,24.6,11111222
Amerada Hess,ioos:station:wmo:42879:2,2020-04-11T20:02:00Z,28.2713,-88.8546,30.0,24.6,11111222
Amerada Hess,ioos:station:wmo:42879:2,2020-04-11T20:12:00Z,28.2713,-88.8546,30.0,24.6,11111222
Amerada Hess,ioos:station:wmo:42879:2,2020-04-11T20:22:00Z,28.2713,-88.8546,30.0,24.6,11111222
Amerada Hess,ioos:station:wmo:42879:2,2020-04-11T20:32:00Z,28.2713,-88.8546,30.0,24.6,11111222
Amerada Hess,ioos:station:wmo:42879:2,2020-04-11T20:42:00Z,28.2713,-88.8546,30.0,24.6,11111222
Amerada Hess,ioos:station:wmo:42879:2,2020-04-11T20:52:00Z,28.2713,-88.8546,30.0,24.6,11111222
Amerada Hess,ioos:station:wmo:42879:2,2020-04-11T21:02:00Z,28.2713,-88.8546,30.0,24.6,11111222
Amerada Hess,ioos:station:wmo:42879:2,2020-04-11T21:12:00Z,28.2713,-88.8546,30.0,24.6,11111222
Amerada Hess,ioos:station:wmo:42879:2,2020-04-11T21:22:00Z,28.2713,-88.8546,30.0,24.6,11111222
Amerada Hess,ioos:station:wmo:42879:2,2020-04-11T21:32:00Z,28.2714,-88.8547,30.0,24.7,11111222
Amerada Hess,ioos:station:wmo:42879:2,2020-04-11T21:42:00Z,28.2713,-88.8547,30.0,24.7,11111222
Amerada Hess,ioos:station:wmo:42879:2,2020-04-11T21:52:00Z,28.2713,-88.8547,30.0,24.7,11111222
Amerada Hess,ioos:station:wmo:42879:2,2020-04-11T22:02:00Z,28.2714,-88.8547,30.0,24.7,11111222
Amerada Hess,ioos:station:wmo:42879:2,2020-04-11T22:12:00Z,28.2713,-88.8546,30.0,24.7,11111222
Amerada Hess,ioos:station:wmo:42879:2,2020-04-11T22:22:00Z,28.2713,-88.8547,30.0,24.7,11111222
Amerada Hess,ioos:station:wmo:42879:2,2020-04-11T22:32:00Z,28.2713,-88.8547,30.0,24.8,11111222
Amerada Hess,ioos:station:wmo:42879:2,2020-04-11T22:42:00Z,28.2713,-88.8547,30.0,24.8,11111222
Amerada Hess,ioos:station:wmo:42879:2,2020-04-11T22:52:00Z,28.2714,-88.8546,30.0,24.8,11111222
Amerada Hess,ioos:station:wmo:42879:2,2020-04-11T23:02:00Z,28.2714,-88.8546,30.0,24.7,11111222
Amerada Hess,ioos:station:wmo:42879:2,2020-04-11T23:12:00Z,28.2714,-88.8546,30.0,24.7,11111222
Amerada Hess,ioos:station:wmo:42879:2,2020-04-11T23:22:00Z,28.2714,-88.8545,30.0,24.7,11111222
Amerada Hess,ioos:station:wmo:42879:2,2020-04-11T23:32:00Z,28.2714,-88.8546,30.0,24.7,11111222
Amerada Hess,ioos:station:wmo:42879:2,2020-04-11T23:42:00Z,28.2714,-88.8545,30.0,24.7,11111222
Amerada Hess,ioos:station:wmo:42879:2,2020-04-11T23:52:00Z,28.2714,-88.8545,30.0,24.7,11111222
Amerada Hess,ioos:station:wmo:42879:2,2020-04-12T00:02:00Z,28.2714,-88.8546,30.0,24.7,11111222
Amerada Hess,ioos:station:wmo:42879:2,2020-04-12T00:12:00Z,28.2714,-88.8546,30.0,24.7,11111222
Amerada Hess,ioos:station:wmo:42879:2,2020-04-12T00:22:00Z,28.2714,-88.8546,30.0,24.7,11111222
Amerada Hess,ioos:station:wmo:42879:2,2020-04-12T00:32:00Z,28.2717,-88.8547,30.0,24.7,11111222
Amerada Hess,ioos:station:wmo:42879:2,2020-04-12T00:42:00Z,28.2717,-88.8547,30.0,24.7,11111222
Amerada Hess,ioos:station:wmo:42879:2,2020-04-12T00:52:00Z,28.2717,-88.8547,30.0,24.7,11111222
Amerada Hess,ioos:station:wmo:42879:2,2020-04-12T01:02:00Z,28.2717,-88.8547,30.0,24.7,11111222
Amerada Hess,ioos:station:wmo:42879:2,2020-04-12T01:12:00Z,28.2717,-88.8547,30.0,24.6,11111222
Amerada Hess,ioos:station:wmo:42879:2,2020-04-12T01:22:00Z,28.2717,-88.8547,30.0,24.7,11111222
Amerada Hess,ioos:station:wmo:42879:2,2020-04-12T01:32:00Z,28.2717,-88.8547,30.0,24.7,11111222
Amerada Hess,ioos:station:wmo:42879:2,2020-04-12T01:42:00Z,28.2717,-88.8547,30.0,24.7,11111222
Amerada Hess,ioos:station:wmo:42879:2,2020-04-12T01:52:00Z,28.2717,-88.8547,30.0,24.7,11111222
Amerada Hess,ioos:station:wmo:42879:2,2020-04-12T02:02:00Z,28.2717,-88.8547,30.0,24.7,11111222
Amerada Hess,ioos:station:wmo:42879:2,2020-04-12T02:12:00Z,28.2717,-88.8547,30.0,24.7,11111222
Amerada Hess,ioos:station:wmo:42879:2,2020-04-12T02:22:00Z,28.2717,-88.8547,30.0,24.6,11111222
Amerada Hess,ioos:station:wmo:42879:2,2020-04-12T02:32:00Z,28.2717,-88.8547,30.0,24.6,11111222
Amerada Hess,ioos:station:wmo:42879:2,2020-04-12T02:42:00Z,28.2717,-88.8547,30.0,24.6,11111222
Amerada Hess,ioos:station:wmo:42879:2,2020-04-12T02:52:00Z,28.2717,-88.8547,30.0,24.6,11111222
Amerada Hess,ioos:station:wmo:42879:2,2020-04-12T03:02:00Z,28.2717,-88.8547,30.0,24.6,11111222
Amerada Hess,ioos:station:wmo:42879:2,2020-04-12T03:12:00Z,28.2717,-88.8547,30.0,24.6,11111222
Amerada Hess,ioos:station:wmo:42879:2,2020-04-12T03:22:00Z,28.2717,-88.8547,30.0,24.6,11111222
Amerada Hess,ioos:station:wmo:42879:2,2020-04-12T03:32:00Z,28.2717,-88.8547,30.0,24.6,11111222
Amerada Hess,ioos:station:wmo:42879:2,2020-04-12T03:42:00Z,28.2717,-88.8547,30.0,24.6,11111222
Amerada Hess,ioos:station:wmo:42879:2,2020-04-12T03:52:00Z,28.2717,-88.8547,30.0,24.6,11111222
Amerada Hess,ioos:station:wmo:42879:2,2020-04-12T04:02:00Z,28.2717,-88.8547,30.0,24.6,11111222
Amerada Hess,ioos:station:wmo:42879:2,2020-04-12T04:12:00Z,28.2717,-88.8547,30.0,24.6,11111222
Amerada Hess,ioos:station:wmo:42879:2,2020-04-12T04:22:00Z,28.2717,-88.8547,30.0,24.6,11111222
Amerada Hess,ioos:station:wmo:42879:2,2020-04-12T04:32:00Z,28.2717,-88.8547,30.0,24.6,11111222
Amerada Hess,ioos:station:wmo:42879:2,2020-04-12T04:42:00Z,28.2717,-88.8547,30.0,24.6,11111222
Amerada Hess,ioos:station:wmo:42879:2,2020-04-12T04:52:00Z,28.2717,-88.8547,30.0,24.6,11111222
Amerada Hess,ioos:station:wmo:42879:2,2020-04-12T05:02:00Z,28.2717,-88.8547,30.0,24.6,11111222
Amerada Hess,ioos:station:wmo:42879:2,2020-04-12T05:12:00Z,28.2717,-88.8547,30.0,24.6,11111222
Amerada Hess,ioos:station:wmo:42879:2,2020-04-12T05:22:00Z,28.2717,-88.8547,30.0,24.6,11111222
Amerada Hess,ioos:station:wmo:42879:2,2020-04-12T05:32:00Z,28.2717,-88.8547,30.0,24.6,11111222
Amerada Hess,ioos:station:wmo:42879:2,2020-04-12T05:42:00Z,28.2717,-88.8547,30.0,24.6,11111222
Amerada Hess,ioos:station:wmo:42879:2,2020-04-12T05:52:00Z,28.2717,-88.8547,30.0,24.6,11111222
Amerada Hess,ioos:station:wmo:42879:2,2020-04-12T06:02:00Z,28.2717,-88.8547,30.0,24.7,11111222
Amerada Hess,ioos:station:wmo:42879:2,2020-04-12T06:12:00Z,28.2717,-88.8547,30.0,24.7,11111222
Amerada Hess,ioos:station:wmo:42879:2,2020-04-12T06:22:00Z,28.2717,-88.8547,30.0,24.7,11111222
Amerada Hess,ioos:station:wmo:42879:2,2020-04-12T06:32:00Z,28.2717,-88.8547,30.0,24.7,11111222
Amerada Hess,ioos:station:wmo:42879:2,2020-04-12T06:42:00Z,28.2717,-88.8547,30.0,24.7,11111222
Amerada Hess,ioos:station:wmo:42879:2,2020-04-12T06:52:00Z,28.2717,-88.8547,30.0,24.7,11111222
Amerada Hess,ioos:station:wmo:42879:2,2020-04-12T07:02:00Z,28.2717,-88.8547,30.0,24.7,11111222
Amerada Hess,ioos:station:wmo:42879:2,2020-04-12T07:12:00Z,28.2717,-88.8547,30.0,24.7,11111222
Amerada Hess,ioos:station:wmo:42879:2,2020-04-12T07:22:00Z,28.2717,-88.8547,30.0,24.7,11111222
Amerada Hess,ioos:station:wmo:42879:2,2020-04-12T07:32:00Z,28.2717,-88.8547,30.0,24.7,11111222
Amerada Hess,ioos:station:wmo:42879:2,2020-04-12T07:42:00Z,28.2717,-88.8547,30.0,24.7,11111222
Amerada Hess,ioos:station:wmo:42879:2,2020-04-12T07:52:00Z,28.2717,-88.8547,30.0,24.7,11111222
Amerada Hess,ioos:station:wmo:42879:2,2020-04-12T08:02:00Z,28.2717,-88.8547,30.0,24.7,11111222
Amerada Hess,ioos:station:wmo:42879:2,2020-04-12T08:12:00Z,28.2717,-88.8547,30.0,24.7,11111222
Amerada Hess,ioos:station:wmo:42879:2,2020-04-12T08:22:00Z,28.2717,-88.8547,30.0,24.7,11111222
Amerada Hess,ioos:station:wmo:42879:2,2020-04-12T08:32:00Z,28.2717,-88.8547,30.0,24.7,11111222
Amerada Hess,ioos:station:wmo:42879:2,2020-04-12T08:42:00Z,28.2717,-88.8547,30.0,24.7,11111222
Amerada Hess,ioos:station:wmo:42879:2,2020-04-12T08:52:00Z,28.2717,-88.8547,30.0,24.7,11111222
Amerada Hess,ioos:station:wmo:42879:2,2020-04-12T09:02:00Z,28.2717,-88.8547,30.0,24.8,11111222
Amerada Hess,ioos:station:wmo:42879:2,2020-04-12T09:12:00Z,28.2717,-88.8547,30.0,24.8,11111222
Amerada Hess,ioos:station:wmo:42879:2,2020-04-12T09:22:00Z,28.2717,-88.8547,30.0,24.8,11111222
Amerada Hess,ioos:station:wmo:42879:2,2020-04-12T09:32:00Z,28.2717,-88.8547,30.0,24.8,11111222
Amerada Hess,ioos:station:wmo:42879:2,2020-04-12T09:42:00Z,28.2717,-88.8547,30.0,24.8,11111222
Amerada Hess,ioos:station:wmo:42879:2,2020-04-12T09:52:00Z,28.2717,-88.8547,30.0,24.8,11111222
Amerada Hess,ioos:station:wmo:42879:2,2020-04-12T10:02:00Z,28.2717,-88.8547,30.0,24.8,11111222
Amerada Hess,ioos:station:wmo:42879:2,2020-04-12T10:12:00Z,28.2717,-88.8547,30.0,24.8,11111222
Amerada Hess,ioos:station:wmo:42879:2,2020-04-12T10:22:00Z,28.2717,-88.8547,30.0,24.8,11111222
Amerada Hess,ioos:station:wmo:42879:2,2020-04-12T10:32:00Z,28.2717,-88.8547,30.0,24.8,11111222
Amerada Hess,ioos:station:wmo:42879:2,2020-04-12T10:42:00Z,28.2717,-88.8547,30.0,24.8,11111222
Amerada Hess,ioos:station:wmo:42879:2,2020-04-12T10:52:00Z,28.2717,-88.8547,30.0,24.8,11111222
Amerada Hess,ioos:station:wmo:42879:2,2020-04-12T11:02:00Z,28.2717,-88.8547,30.0,24.8,11111222
Amerada Hess,ioos:station:wmo:42879:2,2020-04-12T11:12:00Z,28.2717,-88.8547,30.0,24.8,11111222
Amerada Hess,ioos:station:wmo:42879:2,2020-04-12T11:22:00Z,28.2717,-88.8547,30.0,24.8,11111222
Amerada Hess,ioos:station:wmo:42879:2,2020-04-12T11:32:00Z,28.2717,-88.8547,30.0,24.8,11111222
Amerada Hess,ioos:station:wmo:42879:2,2020-04-12T11:42:00Z,28.2717,-88.8547,30.0,24.8,11111222
Amerada Hess,ioos:station:wmo:42879:2,2020-04-12T11:52:00Z,28.2717,-88.8547,30.0,24.8,11111222
Amerada Hess,ioos:station:wmo:42879:2,2020-04-12T12:02:00Z,28.2717,-88.8547,30.0,24.8,11111222
Amerada Hess,ioos:station:wmo:42879:2,2020-04-12T12:12:00Z,28.2717,-88.8547,30.0,24.8,11111222
Amerada Hess,ioos:station:wmo:42879:2,2020-04-12T12:22:00Z,28.2717,-88.8547,30.0,24.8,11111222
Amerada Hess,ioos:station:wmo:42879:2,2020-04-12T12:32:00Z,28.2717,-88.8547,30.0,24.7,11111222
Amerada Hess,ioos:station:wmo:42879:2,2020-04-12T12:42:00Z,28.2717,-88.8547,30.0,24.7,11111222
Amerada Hess,ioos:station:wmo:42879:2,2020-04-12T12:52:00Z,28.2717,-88.8547,30.0,24.7,11111222
Amerada Hess,ioos:station:wmo:42879:2,2020-04-12T13:02:00Z,28.2717,-88.8547,30.0,24.7,11111222
Amerada Hess,ioos:station:wmo:42879:2,2020-04-12T13:12:00Z,28.2717,-88.8547,30.0,24.7,11111222
Amerada Hess,ioos:station:wmo:42879:2,2020-04-12T13:22:00Z,28.2717,-88.8547,30.0,24.7,11111222
Amerada Hess,ioos:station:wmo:42879:2,2020-04-12T13:32:00Z,28.2717,-88.8547,30.0,24.7,11111222
Amerada Hess,ioos:station:wmo:42879:2,2020-04-12T13:42:00Z,28.2717,-88.8547,30.0,24.8,11111222
Amerada Hess,ioos:station:wmo:42879:2,2020-04-12T13:52:00Z,28.2717,-88.8547,30.0,24.8,11111222
Amerada Hess,ioos:station:wmo:42879:2,2020-04-12T14:02:00Z,28.2717,-88.8547,30.0,24.7,11111222
Amerada Hess,ioos:station:wmo:42879:2,2020-04-12T14:12:00Z,28.2717,-88.8547,30.0,24.7,11111222
Amerada Hess,ioos:station:wmo:42879:2,2020-04-12T14:22:00Z,28.2717,-88.8547,30.0,24.7,11111222
Amerada Hess,ioos:station:wmo:42879:2,2020-04-12T14:32:00Z,28.2717,-88.8547,30.0,24.7,11111222
Amerada Hess,ioos:station:wmo:42879:2,2020-04-12T14:42:00Z,28.2717,-88.8547,30.0,24.7,11111222
Amerada Hess,ioos:station:wmo:42879:2,2020-04-12T14:52:00Z,28.2717,-88.8547,30.0,24.7,11111222
Amerada Hess,ioos:station:wmo:42879:2,2020-04-12T15:02:00Z,28.2717,-88.8547,30.0,24.7,11111222
Amerada Hess,ioos:station:wmo:42879:2,2020-04-12T15:12:00Z,28.2717,-88.8547,30.0,24.7,11111222
Amerada Hess,ioos:station:wmo:42879:2,2020-04-12T15:22:00Z,28.2717,-88.8547,30.0,24.7,11111222
Amerada Hess,ioos:station:wmo:42879:2,2020-04-12T15:32:00Z,28.2717,-88.8547,30.0,24.7,11111222
Amerada Hess,ioos:station:wmo:42879:2,2020-04-12T15:42:00Z,28.2717,-88.8547,30.0,24.7,11111222
Amerada Hess,ioos:station:wmo:42879:2,2020-04-12T15:52:00Z,28.2717,-88.8547,30.0,24.7,11111222
Amerada Hess,ioos:station:wmo:42879:2,2020-04-12T16:02:00Z,28.2717,-88.8547,30.0,24.7,11111222
Amerada Hess,ioos:station:wmo:42879:2,2020-04-12T16:12:00Z,28.2717,-88.8547,30.0,24.7,11111222
Amerada Hess,ioos:station:wmo:42879:2,2020-04-12T21:35:00Z,28.2717,-88.8547,30.0,24.4,11111222
Amerada Hess,ioos:station:wmo:42879:2,2020-04-12T21:45:00Z,28.2722,-88.8543,30.0,24.6,11111222
Amerada Hess,ioos:station:wmo:42879:2,2020-04-12T21:55:00Z,28.2722,-88.8543,30.0,24.7,11111222
Amerada Hess,ioos:station:wmo:42879:2,2020-04-12T22:05:00Z,28.2722,-88.8543,30.0,24.8,11111222
Amerada Hess,ioos:station:wmo:42879:2,2020-04-12T22:15:00Z,28.2722,-88.8543,30.0,24.8,11111222
Amerada Hess,ioos:station:wmo:42879:2,2020-04-12T22:25:00Z,28.2721,-88.8543,30.0,24.9,11111222
Amerada Hess,ioos:station:wmo:42879:2,2020-04-12T22:35:00Z,28.2721,-88.8543,30.0,24.9,11111222
Amerada Hess,ioos:station:wmo:42879:2,2020-04-12T22:45:00Z,28.2721,-88.8543,30.0,24.9,11111222
Amerada Hess,ioos:station:wmo:42879:2,2020-04-12T22:55:00Z,28.2721,-88.8543,30.0,24.9,11111222
Amerada Hess,ioos:station:wmo:42879:2,2020-04-12T23:05:00Z,28.2722,-88.8543,30.0,24.9,11111222
Amerada Hess,ioos:station:wmo:42879:2,2020-04-12T23:15:00Z,28.2722,-88.8543,30.0,25.0,11111222
Amerada Hess,ioos:station:wmo:42879:2,2020-04-12T23:25:00Z,28.2722,-88.8543,30.0,25.0,11111222
Amerada Hess,ioos:station:wmo:42879:2,2020-04-12T23:35:00Z,28.2722,-88.8542,30.0,25.0,11111222
Amerada Hess,ioos:station:wmo:42879:2,2020-04-12T23:45:00Z,28.2722,-88.8542,30.0,25.0,11111222
Amerada Hess,ioos:station:wmo:42879:2,2020-04-12T23:55:00Z,28.2724,-88.8542,30.0,25.0,11111222
Amerada Hess,ioos:station:wmo:42879:2,2020-04-13T00:05:00Z,28.2723,-88.8543,30.0,25.0,11111222
Amerada Hess,ioos:station:wmo:42879:2,2020-04-13T00:15:00Z,28.2724,-88.8542,30.0,25.0,11111222
Amerada Hess,ioos:station:wmo:42879:2,2020-04-13T00:25:00Z,28.2723,-88.8542,30.0,25.0,11111222
Amerada Hess,ioos:station:wmo:42879:2,2020-04-13T00:35:00Z,28.2722,-88.8542,30.0,25.0,11111222
Amerada Hess,ioos:station:wmo:42879:2,2020-04-13T00:45:00Z,28.2721,-88.8542,30.0,24.9,11111222
Amerada Hess,ioos:station:wmo:42879:2,2020-04-13T00:55:00Z,28.2722,-88.8542,30.0,25.0,11111222
Amerada Hess,ioos:station:wmo:42879:2,2020-04-13T01:05:00Z,28.2722,-88.8542,30.0,25.0,11111222
Amerada Hess,ioos:station:wmo:42879:2,2020-04-13T01:15:00Z,28.2722,-88.8542,30.0,25.0,11111222
Amerada Hess,ioos:station:wmo:42879:2,2020-04-13T01:25:00Z,28.2722,-88.8542,30.0,25.0,11111222
Amerada Hess,ioos:station:wmo:42879:2,2020-04-13T01:35:00Z,28.2722,-88.8543,30.0,25.0,11111222
Amerada Hess,ioos:station:wmo:42879:2,2020-04-13T01:45:00Z,28.2722,-88.8542,30.0,25.0,11111222
Amerada Hess,ioos:station:wmo:42879:2,2020-04-13T01:55:00Z,28.2722,-88.8542,30.0,25.0,11111222
Amerada Hess,ioos:station:wmo:42879:2,2020-04-13T02:05:00Z,28.2722,-88.8542,30.0,24.9,11111222
Amerada Hess,ioos:station:wmo:42879:2,2020-04-13T02:15:00Z,28.2722,-88.8542,30.0,24.9,11111222
Amerada Hess,ioos:station:wmo:42879:2,2020-04-13T02:25:00Z,28.2722,-88.8542,30.0,24.9,11111222
Amerada Hess,ioos:station:wmo:42879:2,2020-04-13T02:35:00Z,28.2722,-88.8542,30.0,24.9,11111222
Amerada Hess,ioos:station:wmo:42879:2,2020-04-13T02:45:00Z,28.2722,-88.8542,30.0,24.9,11111222
Amerada Hess,ioos:station:wmo:42879:2,2020-04-13T02:55:00Z,28.2722,-88.8542,30.0,24.9,11111222
Amerada Hess,ioos:station:wmo:42879:2,2020-04-13T03:05:00Z,28.2722,-88.8542,30.0,24.9,11111222
Amerada Hess,ioos:station:wmo:42879:2,2020-04-13T03:15:00Z,28.2722,-88.8542,30.0,25.0,11111222
Amerada Hess,ioos:station:wmo:42879:2,2020-04-13T03:25:00Z,28.2722,-88.8542,30.0,25.0,11111222
Amerada Hess,ioos:station:wmo:42879:2,2020-04-13T03:35:00Z,28.2722,-88.8540,30.0,25.0,11111222
Amerada Hess,ioos:station:wmo:42879:2,2020-04-13T03:45:00Z,28.2722,-88.8541,30.0,25.0,11111222
Amerada Hess,ioos:station:wmo:42879:2,2020-04-13T03:55:00Z,28.2722,-88.8541,30.0,24.9,11111222
Amerada Hess,ioos:station:wmo:42879:2,2020-04-13T04:05:00Z,28.2722,-88.8541,30.0,24.9,11111222
Amerada Hess,ioos:station:wmo:42879:2,2020-04-13T04:15:00Z,28.2722,-88.8541,30.0,24.9,11111222
Amerada Hess,ioos:station:wmo:42879:2,2020-04-13T04:25:00Z,28.2722,-88.8541,30.0,24.9,11111222
Amerada Hess,ioos:station:wmo:42879:2,2020-04-13T04:35:00Z,28.2722,-88.8541,30.0,24.8,11111222
Amerada Hess,ioos:station:wmo:42879:2,2020-04-13T04:45:00Z,28.2722,-88.8541,30.0,24.9,11111222
Amerada Hess,ioos:station:wmo:42879:2,2020-04-13T04:55:00Z,28.2723,-88.8541,30.0,24.8,11111222
Amerada Hess,ioos:station:wmo:42879:2,2020-04-13T05:05:00Z,28.2724,-88.8542,30.0,24.8,11111222
Amerada Hess,ioos:station:wmo:42879:2,2020-04-13T05:15:00Z,28.2724,-88.8541,30.0,24.8,11111222
Amerada Hess,ioos:station:wmo:42879:2,2020-04-13T05:25:00Z,28.2724,-88.8541,30.0,24.8,11111222
Amerada Hess,ioos:station:wmo:42879:2,2020-04-13T05:35:00Z,28.2724,-88.8541,30.0,24.7,11111222
Amerada Hess,ioos:station:wmo:42879:2,2020-04-13T05:45:00Z,28.2722,-88.8542,30.0,24.7,11111222
Amerada Hess,ioos:station:wmo:42879:2,2020-04-13T05:55:00Z,28.2722,-88.8542,30.0,24.7,11111222
Amerada Hess,ioos:station:wmo:42879:2,2020-04-13T06:05:00Z,28.2723,-88.8541,30.0,24.8,11111222
Amerada Hess,ioos:station:wmo:42879:2,2020-04-13T06:15:00Z,28.2723,-88.8541,30.0,24.8,11111222
Amerada Hess,ioos:station:wmo:42879:2,2020-04-13T06:25:00Z,28.2723,-88.8541,30.0,24.7,11111222
Amerada Hess,ioos:station:wmo:42879:2,2020-04-13T06:35:00Z,28.2723,-88.8541,30.0,24.8,11111222
Amerada Hess,ioos:station:wmo:42879:2,2020-04-13T06:45:00Z,28.2722,-88.8541,30.0,24.8,11111222
Amerada Hess,ioos:station:wmo:42879:2,2020-04-13T06:55:00Z,28.2722,-88.8541,30.0,24.8,11111222
Amerada Hess,ioos:station:wmo:42879:2,2020-04-13T07:05:00Z,28.2723,-88.8542,30.0,24.9,11111222
Amerada Hess,ioos:station:wmo:42879:2,2020-04-13T07:15:00Z,28.2723,-88.8542,30.0,24.9,11111222
Amerada Hess,ioos:station:wmo:42879:2,2020-04-13T07:25:00Z,28.2723,-88.8542,30.0,24.9,11111222
Amerada Hess,ioos:station:wmo:42879:2,2020-04-13T07:35:00Z,28.2721,-88.8541,30.0,24.9,11111222
Amerada Hess,ioos:station:wmo:42879:2,2020-04-13T07:45:00Z,28.2721,-88.8541,30.0,24.9,11111222
Amerada Hess,ioos:station:wmo:42879:2,2020-04-13T07:55:00Z,28.2722,-88.8542,30.0,24.9,11111222
Amerada Hess,ioos:station:wmo:42879:2,2020-04-13T08:05:00Z,28.2722,-88.8542,30.0,24.9,11111222
Amerada Hess,ioos:station:wmo:42879:2,2020-04-13T08:15:00Z,28.2722,-88.8542,30.0,25.0,11111222
Amerada Hess,ioos:station:wmo:42879:2,2020-04-13T08:25:00Z,28.2721,-88.8541,30.0,25.0,11111222
Amerada Hess,ioos:station:wmo:42879:2,2020-04-13T08:35:00Z,28.2721,-88.8541,30.0,25.0,11111222
Amerada Hess,ioos:station:wmo:42879:2,2020-04-13T08:45:00Z,28.2721,-88.8541,30.0,25.0,11111222
Amerada Hess,ioos:station:wmo:42879:2,2020-04-13T08:55:00Z,28.2721,-88.8541,30.0,25.0,11111222
Amerada Hess,ioos:station:wmo:42879:2,2020-04-13T09:05:00Z,28.2721,-88.8541,30.0,25.0,11111222
Amerada Hess,ioos:station:wmo:42879:2,2020-04-13T09:15:00Z,28.2721,-88.8541,30.0,25.0,11111222
Amerada Hess,ioos:station:wmo:42879:2,2020-04-13T09:25:00Z,28.2721,-88.8541,30.0,25.0,11111222
Amerada Hess,ioos:station:wmo:42879:2,2020-04-13T09:35:00Z,28.2722,-88.8541,30.0,25.0,11111222
Amerada Hess,ioos:station:wmo:42879:2,2020-04-13T09:45:00Z,28.2722,-88.8541,30.0,25.0,11111222
Amerada Hess,ioos:station:wmo:42879:2,2020-04-13T09:55:00Z,28.2722,-88.8541,30.0,25.0,11111222
Amerada Hess,ioos:station:wmo:42879:2,2020-04-13T10:05:00Z,28.2722,-88.8541,30.0,25.0,11111222
Amerada Hess,ioos:station:wmo:42879:2,2020-04-13T10:15:00Z,28.2721,-88.8542,30.0,25.0,11111222
Amerada Hess,ioos:station:wmo:42879:2,2020-04-13T10:25:00Z,28.2721,-88.8542,30.0,25.0,11111222
Amerada Hess,ioos:station:wmo:42879:2,2020-04-13T10:35:00Z,28.2722,-88.8542,30.0,25.0,11111222
Amerada Hess,ioos:station:wmo:42879:2,2020-04-13T10:45:00Z,28.2722,-88.8542,30.0,25.0,11111222
Amerada Hess,ioos:station:wmo:42879:2,2020-04-13T10:55:00Z,28.2722,-88.8542,30.0,25.0,11111222
Amerada Hess,ioos:station:wmo:42879:2,2020-04-13T11:05:00Z,28.2722,-88.8542,30.0,25.0,11111222
Amerada Hess,ioos:station:wmo:42879:2,2020-04-13T11:15:00Z,28.2722,-88.8542,30.0,24.9,11111222
Amerada Hess,ioos:station:wmo:42879:2,2020-04-13T11:25:00Z,28.2722,-88.8542,30.0,25.0,11111222
Amerada Hess,ioos:station:wmo:42879:2,2020-04-13T11:35:00Z,28.2723,-88.8542,30.0,25.0,11111222
Amerada Hess,ioos:station:wmo:42879:2,2020-04-13T11:45:00Z,28.2722,-88.8542,30.0,25.0,11111222
Amerada Hess,ioos:station:wmo:42879:2,2020-04-13T11:55:00Z,28.2722,-88.8542,30.0,25.0,11111222
Amerada Hess,ioos:station:wmo:42879:2,2020-04-13T12:05:00Z,28.2722,-88.8542,30.0,25.0,11111222
Amerada Hess,ioos:station:wmo:42879:2,2020-04-13T12:15:00Z,28.2722,-88.8542,30.0,25.0,11111222
Amerada Hess,ioos:station:wmo:42879:2,2020-04-13T12:25:00Z,28.2722,-88.8542,30.0,25.0,11111222
Amerada Hess,ioos:station:wmo:42879:2,2020-04-13T12:35:00Z,28.2722,-88.8541,30.0,25.0,11111222
Amerada Hess,ioos:station:wmo:42879:2,2020-04-13T12:45:00Z,28.2722,-88.8541,30.0,25.0,11111222
Amerada Hess,ioos:station:wmo:42879:2,2020-04-13T12:55:00Z,28.2722,-88.8541,30.0,25.0,11111222
Amerada Hess,ioos:station:wmo:42879:2,2020-04-13T13:05:00Z,28.2722,-88.8541,30.0,25.0,11111222
Amerada Hess,ioos:station:wmo:42879:2,2020-04-13T13:15:00Z,28.2722,-88.8541,30.0,25.0,11111222
Amerada Hess,ioos:station:wmo:42879:2,2020-04-13T13:25:00Z,28.2722,-88.8541,30.0,25.0,11111222
Amerada Hess,ioos:station:wmo:42879:2,2020-04-13T13:35:00Z,28.2722,-88.8541,30.0,25.0,11111222
Amerada Hess,ioos:station:wmo:42879:2,2020-04-13T13:45:00Z,28.2722,-88.8541,30.0,25.0,11111222
Amerada Hess,ioos:station:wmo:42879:2,2020-04-13T13:55:00Z,28.2722,-88.8541,30.0,25.0,11111222
Amerada Hess,ioos:station:wmo:42879:2,2020-04-13T14:05:00Z,28.2722,-88.8541,30.0,25.0,11111222
Amerada Hess,ioos:station:wmo:42879:2,2020-04-13T14:15:00Z,28.2722,-88.8541,30.0,25.0,11111222
Amerada Hess,ioos:station:wmo:42879:2,2020-04-13T14:25:00Z,28.2722,-88.8541,30.0,25.0,11111222
Amerada Hess,ioos:station:wmo:42879:2,2020-04-13T14:35:00Z,28.2722,-88.8541,30.0,25.0,11111222
Amerada Hess,ioos:station:wmo:42879:2,2020-04-13T14:45:00Z,28.2722,-88.8541,30.0,25.0,11111222
Amerada Hess,ioos:station:wmo:42879:2,2020-04-13T14:55:00Z,28.2722,-88.8541,30.0,25.0,11111222
Amerada Hess,ioos:station:wmo:42879:2,2020-04-13T15:05:00Z,28.2722,-88.8541,30.0,25.0,11111222